Location: East Horndon
(51.5667°N, 0.3500°E)
Time: 11:42:32
(UTC+00:00)

Meteor 2-16 Rocket - Pass Details

Date: 08 November 2025
Orbit: 942 x 955 km, 82.6° (Epoch: 09 December)

Event Time Altitude Azimuth Distance (km) Brightness Sun altitude
Rises 05:14:02 0° 192° (SSW) 3,600 7.4 -17.3°
Reaches altitude 10° 05:16:31 10° 193° (SSW) 2,661 6.7 -16.9°
Maximum altitude 05:22:37 81° 281° (W) 967 4.4 -16.0°
Drops below altitude 10° 05:28:47 10° 9° (N) 2,688 6.8 -15.0°
Sets 05:31:18 0° 11° (N) 3,639 7.5 -14.7°
